« Back
NWS Peachtree City, Ga » Text Product » GA Regional Weather Roundup


Printer-friendly Version
Current Version              Previous Versions:   1  2  3  4  5  6  7  8  9  

Regional Weather Roundup

844
ASUS42 KFFC 281303
RWRGA
WEATHER ROUNDUP FOR GEORGIA
NATIONAL WEATHER SERVICE PEACHTREE CITY GA
900 AM EDT MON JUL 28 2014

NOTE: "FAIR" INDICATES FEW OR NO CLOUDS BELOW 12,000 FEET WITH NO
SIGNIFICANT WEATHER AND/OR OBSTRUCTIONS TO VISIBILITY.

* = USE WITH CAUTION. THE STATIONS MARKED WITH AN ASTERISK MAY NOT
REPORT WEATHER SUCH AS PRECIPITATION, FOG, OR THUNDER AND ARE NOT
QUALITY CONTROLLED BY NWS.

THE REMARK "TC" DENOTES TEMPERATURE READING IN DEGREES CELSIUS.

GAZ001>058-281400-
NORTH GEORGIA

CITY           SKY/WX    TMP DP  RH WIND       PRES   REMARKS
ATLANTA        PTSUNNY   80  74  81 W10       29.95R
ATHENS         CLOUDY    79  72  79 W6        29.92R
CHAMBLEE       PTSUNNY   80  73  79 W6        29.95R
PEACHTREE CITY PTSUNNY   79  74  84 W5        29.97R HAZE
ROME           SUNNY     81  71  71 N5        29.95R
WEST ATLANTA   MOSUNNY   81  74  79 W10       29.95R
GAINESVILLE    MOSUNNY   77  67  71 W9        29.96R
CARTERSVILLE   MOSUNNY   80  70  71 VRB3      29.96S


CITY           SKY/WX    TMP DP  RH WIND       PRES   REMARKS
DALTON*        SUNNY     73  73 100 N6        29.96S
LAWRENCEVILLE* MOSUNNY   79  64  61 W8        29.94R
MARIETTA       PTSUNNY   80  75  85 W9        29.96R
KENNESAW*      PTSUNNY   79  70  73 NW8       29.97R
$$

GAZ059>098-102>109-281400-
CENTRAL GEORGIA

CITY           SKY/WX    TMP DP  RH WIND       PRES   REMARKS
AUGUSTA-BUSH   PTSUNNY   82  74  76 SW10G17   29.87S
AUGUSTA-DANIEL PTSUNNY   83  74  74 W8        29.90R
COLUMBUS       MOSUNNY   80  74  81 W8        29.97R
MACON          MOSUNNY   82  76  81 W14G21    29.94S
ROBINS AFB     MOSUNNY   84  75  75 W12       29.94S HX  91


CITY           SKY/WX    TMP DP  RH WIND       PRES   REMARKS
LAGRANGE*      SUNNY     83  78  84 W7        29.97S HX  93
SYLVANIA*      MOSUNNY   83  78  85 W8        29.91F HX  94
MILLEDGEVILLE* MOSUNNY   64  61  88 CALM      29.92R
$$

GAZ099>101-110>166-281400-
SOUTH GEORGIA

CITY           SKY/WX    TMP DP  RH WIND       PRES   REMARKS
SAVANNAH       PTSUNNY   85  75  72 SW10      29.93S HX  93
VALDOSTA       PTSUNNY   84  76  76 CALM      30.01S HX  93
ST SIMONS      SUNNY     82  76  81 W9        29.97S
FT STEWART     MOSUNNY   83  75  78 SW10      29.93F HX  90
ALBANY         SUNNY     81  76  84 W7        30.01S
HUNTER AFB     MOSUNNY   83  77  80 W12       29.92S HX  93
BRUNSWICK      SUNNY     82  75  78 W9        29.98S


CITY           SKY/WX    TMP DP  RH WIND       PRES   REMARKS
BAINBRIDGE*    MOSUNNY   84  79  84 W7        30.02R HX  96
MOULTRIE*      MOSUNNY   81  79  94 W9        30.02S
VIDALIA*         N/A     82  77  83 SW10      29.95S HX  91
WAYCROSS*      MOSUNNY   85  80  83 W9        29.98S HX 100
DOUGLAS*       MOSUNNY   82  77  83 W8        30.00S HX  91
$$



USA.gov is the U.S. government's official web portal to all federal, state and local government web resources and services.